Location: Litvinovka
(48.6667°N, 34.3500°E)
Time: 15:26:46
(UTC+00:00)

SL-16 R/B - Pass Details

Date: 18 September 2020
Orbit: 985 x 1007 km, 99.5° (Epoch: 22 October)

Event Time Altitude Azimuth Distance (km) Brightness Sun altitude
Exits shadow 22:27:13 37° 34° (NE) 1,495 3.7 -38.7°
Drops below altitude 10° 22:31:39 10° 355° (N) 2,757 5.5 -38.5°
Sets 22:34:15 0° 349° (N) 3,708 6.3 -38.4°
